This demonstration page uses our WeatherBlox Daily Observations layout. Learn more.

Left ArrowRight Arrow

39.29038, -76.61219

Hourly Observations for October 30, 2016

Temp ( °F °C ) Dew Point ( °F °C ) Humidity (%) Winds ( mph kmh ) Pressure ( in mb ) Visibility ( mi km ) Precip ( " mm )
12:54 am 00:54 undefined 64 17.8 54 12.2 70 70 undefined N/A 29.98 1015 N/A 0.00 0.00
1:54 am 01:54 undefined 64 17.8 54 12.2 70 70 undefined N/A 29.98 1015 N/A 0.00 0.00
2:54 am 02:54 undefined 64 17.8 54 12.2 70 70 undefined N/A 29.97 1015 N/A 0.00 0.00
3:54 am 03:54 undefined 63 17.2 53 11.7 70 70 undefined N/A 29.96 1015 N/A 0.00 0.00
4:54 am 04:54 undefined 64 17.8 52 11.1 65 65 undefined N/A 29.96 1014 N/A 0.00 0.00
5:54 am 05:54 undefined 62 16.7 52 11.1 70 70 undefined N/A 29.96 1015 N/A 0.00 0.00
6:54 am 06:54 undefined 60 15.6 52 11.1 75 75 undefined N/A 29.96 1014 N/A 0.00 0.00
7:54 am 07:54 undefined 60 15.6 53 11.7 78 78 undefined N/A 29.96 1015 N/A 0.00 0.00
8:54 am 08:54 undefined 65 18.3 52 11.1 63 63 undefined N/A 29.96 1015 N/A 0.00 0.00
9:54 am 09:54 undefined 70 21.1 54 12.2 57 57 undefined N/A 29.96 1014 N/A 0.00 0.00
10:54 am 10:54 undefined 73 22.8 55 12.8 53 53 undefined N/A 29.94 1014 N/A 0.00 0.00
11:54 am 11:54 undefined 75 23.9 56 13.3 52 52 undefined N/A 29.93 1013 N/A 0.00 0.00
12:54 pm 12:54 undefined 79 26.1 56 13.3 45 45 undefined N/A 29.89 1012 N/A 0.00 0.00
1:54 pm 13:54 undefined 80 26.7 56 13.3 44 44 undefined N/A 29.87 1011 N/A 0.00 0.00
2:54 pm 14:54 undefined 82 27.8 56 13.3 41 41 undefined N/A 29.84 1010 N/A 0.00 0.00
3:54 pm 15:54 undefined 82 27.8 55 12.8 40 40 undefined N/A 29.82 1010 N/A 0.00 0.00
4:54 pm 16:54 undefined 81 27.2 53 11.7 38 38 undefined N/A 29.80 1009 N/A 0.00 0.00
5:54 pm 17:54 undefined 78 25.6 57 13.9 48 48 undefined N/A 29.85 1011 N/A 0.00 0.00
6:54 pm 18:54 undefined 68 20 58 14.4 70 70 undefined N/A 29.90 1013 N/A 0.00 0.00
7:54 pm 19:54 undefined 67 19.4 59 15 76 76 undefined N/A 29.93 1013 N/A 0.00 0.00
8:54 pm 20:54 undefined 66 18.9 59 15 78 78 undefined N/A 29.93 1014 N/A 0.00 0.00
9:54 pm 21:54 undefined 66 18.9 59 15 78 78 undefined N/A 29.95 1014 N/A 0.00 0.00
10:54 pm 22:54 undefined 65 18.3 58 14.4 78 78 undefined N/A 29.98 1015 N/A 0.00 0.00
11:54 pm 23:54 undefined 64 17.8 55 12.8 73 73 undefined N/A 30.01 1016 N/A 0.00 0.00

Powered by AerisWeather